Probability
0 0 0 0 0 0 0 0 0 0 0 3 10 6 6 13 10 3 3 3 10 10 13 13 10 10 13 19 23 32 29 32 35 26 26 29 23 19 23 23 19 19 23 19
0 0 0 0 0 0 0 0 0 0 0 10 10 3 10 10 3 6 6 3 10 10 13 13 10 10 10 10 23 26 32 35 32 29 29 19 16 19 23 23 23 19 19 19
0 0 0 0 0 0 0 0 0 0 0 10 6 6 6 6 10 10 6 6 6 10 13 13 13 10 6 16 16 16 26 26 26 26 26 19 19 19 19 23 23 23 19 16
0 0 0 0 0 0 0 0 0 0 3 6 6 3 3 3 6 6 6 13 13 13 13 16 16 16 16 19 16 13 23 26 26 26 26 19 19 19 19 19 19 23 23 13
0 0 0 0 0 0 0 0 0 3 3 10 3 6 6 6 6 6 10 13 13 13 13 13 16 13 16 19 16 16 16 26 23 19 19 16 16 19 19 19 19 23 23 16
0 0 0 0 3 3 3 3 0 0 6 3 3 6 10 6 10 10 6 16 16 19 23 23 16 13 13 13 13 13 10 16 13 16 19 19 16 16 13 16 13 19 19 16
0 0 0 3 3 3 3 3 3 3 6 3 3 3 3 3 6 10 13 16 19 19 19 16 19 13 16 16 13 10 10 16 13 10 16 16 10 10 10 13 10 10 13 16
0 0 0 3 10 6 6 6 6 6 3 3 3 3 6 6 6 10 13 16 19 16 16 16 16 13 13 10 10 10 10 10 10 6 6 6 6 6 10 10 10 10 6 6
0 0 0 0 0 3 0 6 6 6 10 10 10 13 6 3 6 10 13 23 19 19 13 13 13 13 10 10 10 10 10 10 10 6 6 3 3 6 10 10 10 6 6 6
0 0 0 3 0 0 0 0 10 10 10 13 13 13 6 6 10 10 13 13 10 13 6 10 6 10 6 10 10 10 10 13 10 3 3 3 3 3 10 10 6 6 6 6
3 0 0 0 0 3 3 3 6 10 13 19 13 16 10 10 6 6 13 10 10 6 6 6 6 10 6 6 3 6 6 10 6 3 3 3 6 6 6 10 10 6 6 6
0 0 0 0 3 3 3 3 6 10 13 13 10 13 10 10 6 10 10 10 6 6 6 3 3 3 6 10 3 3 3 6 6 6 3 3 0 0 0 0 3 3 6 3
0 0 0 0 3 6 6 6 6 13 10 13 10 6 10 13 10 10 13 10 10 3 6 6 3 3 6 10 6 6 6 6 6 3 3 0 0 0 0 0 0 0 0 0
0 0 0 0 3 3 6 3 3 6 6 13 6 6 6 13 13 10 13 10 10 10 10 10 6 6 6 10 10 10 6 3 3 3 0 0 0 0 0 0 0 0 0 0
0 0 0 0 0 3 3 3 3 6 10 10 10 10 10 10 13 6 10 6 10 10 10 13 13 13 10 10 13 10 6 0 3 0 0 0 0 0 0 0 0 0 0 0
0 0 0 0 3 6 6 6 6 6 6 10 6 6 6 10 10 6 10 6 6 10 13 10 13 13 16 13 13 10 3 0 0 0 0 0 0 0 0 0 0 0 0 0
0 3 0 0 0 6 6 10 10 10 10 6 13 6 10 10 10 10 10 6 6 6 6 10 13 10 16 10 6 6 3 0 0 0 0 0 0 0 0 0 0 0 3 3
0 0 0 0 3 3 3 10 10 10 10 10 6 10 13 13 10 10 10 6 6 6 10 10 10 3 3 3 3 3 3 3 3 0 0 0 0 0 3 0 3 3 0 0
0 0 0 0 0 3 3 6 10 10 6 6 6 10 10 13 10 10 10 6 6 6 6 10 3 3 3 3 3 3 3 3 3 3 0 0 0 0 0 0 0 0 0 0
0 0 0 0 0 0 3 3 3 6 6 10 6 10 10 6 6 6 6 10 10 6 3 3 0 0 0 0 3 3 3 3 3 0 0 0 0 0 0 0 0 0 0 0
0 0 0 0 0 0 0 3 3 6 6 6 10 6 6 6 6 6 3 3 6 3 3 0 0 3 3 0 0 0 0 0 0 0 0 0 0 0 0 0 0 0 0 0
0 0 0 3 0 0 0 0 3 6 6 3 3 6 6 6 6 6 3 3 3 0 0 0 3 3 3 0 0 0 0 0 0 0 0 0 0 0 0 0 0 0 0 0
0 0 0 0 0 3 0 0 0 6 6 3 3 0 0 6 6 6 3 0 0 0 0 0 0 0 0 0 0 0 0 0 0 0 0 0 0 0 0 0 0 0 0 0
0 0 0 0 0 0 0 0 0 3 3 3 0 0 3 3 6 0 0 0 0 0 0 0 0 0 0 0 0 0 0 0 0 0 0 0 0 0 0 0 0 0 0 0
0 0 0 0 0 0 0 0 0 0 6 0 0 0 0 3 3 0 0 0 0 0 0 0 0 0 0 0 0 0 0 0 0 0 0 0 0 0 0 0 0 0 0 0
0 0 0 0 0 0 0 0 0 0 0 3 3 3 3 3 3 0 0 0 0 0 0 0 0 0 0 0 0 0 0 0 0 0 0 0 0 0 0 0 0 0 0 0
0 0 0 0 0 0 0 0 0 0 0 0 0 3 3 0 0 0 0 0 0 0 0 0 0 0 0 0 0 0 0 0 0 0 0 0 0 0 0 0 0 0 0 0
Height
5886 5888 5888 5889 5890 5890 5890 5890 5889 5889 5889 5888 5888 5887 5887 5886 5886 5886 5884 5882 5881 5880 5879 5878 5876 5874 5873 5871 5869 5867 5864 5862 5860 5858 5855 5853 5851 5848 5845 5843 5840 5837 5835 5832
5881 5881 5882 5883 5884 5884 5884 5884 5883 5883 5883 5883 5883 5881 5881 5881 5881 5880 5878 5877 5876 5875 5873 5872 5870 5868 5867 5865 5862 5860 5858 5855 5853 5850 5848 5845 5843 5841 5838 5835 5833 5830 5827 5825
5874 5875 5875 5877 5877 5877 5877 5877 5877 5877 5877 5876 5876 5875 5875 5875 5875 5873 5873 5871 5870 5869 5867 5865 5863 5861 5860 5857 5855 5853 5850 5848 5845 5843 5840 5837 5835 5833 5830 5827 5825 5822 5820 5817
5866 5868 5869 5873 5871 5870 5870 5870 5870 5870 5870 5870 5869 5869 5869 5868 5867 5866 5865 5864 5862 5861 5859 5858 5856 5854 5852 5849 5847 5845 5842 5840 5837 5835 5832 5829 5827 5824 5822 5819 5817 5814 5811 5808
5859 5860 5861 5863 5864 5863 5863 5862 5863 5863 5863 5863 5862 5862 5861 5860 5859 5858 5857 5856 5854 5852 5851 5850 5848 5846 5844 5842 5839 5837 5834 5831 5828 5826 5823 5820 5818 5816 5813 5810 5808 5805 5802 5799
5851 5852 5853 5857 5856 5855 5856 5854 5855 5855 5856 5855 5855 5854 5854 5853 5852 5850 5849 5847 5845 5844 5843 5841 5839 5838 5836 5833 5831 5829 5826 5823 5820 5817 5814 5811 5809 5806 5803 5801 5799 5795 5793 5791
5843 5843 5845 5848 5848 5848 5849 5848 5847 5847 5847 5847 5847 5847 5846 5844 5843 5842 5839 5838 5836 5836 5835 5833 5831 5830 5827 5825 5823 5820 5817 5815 5812 5808 5805 5803 5800 5798 5794 5791 5789 5787 5785 5782
5836 5836 5839 5839 5839 5840 5839 5839 5838 5838 5838 5838 5838 5837 5836 5835 5834 5832 5831 5830 5829 5828 5826 5825 5823 5821 5819 5816 5814 5811 5809 5806 5803 5800 5798 5795 5792 5789 5786 5783 5780 5778 5775 5773
5829 5830 5829 5830 5830 5831 5830 5830 5830 5830 5830 5829 5829 5828 5827 5826 5826 5824 5823 5822 5821 5819 5817 5815 5814 5812 5810 5808 5805 5802 5800 5797 5794 5792 5789 5786 5783 5780 5777 5774 5771 5769 5766 5763
5820 5820 5820 5821 5821 5822 5822 5822 5821 5821 5820 5820 5819 5819 5818 5817 5816 5815 5814 5813 5812 5810 5808 5806 5804 5802 5800 5798 5795 5793 5791 5788 5785 5782 5780 5777 5774 5771 5768 5765 5762 5759 5757 5754
5811 5811 5812 5812 5813 5813 5813 5813 5813 5812 5811 5810 5809 5809 5808 5807 5807 5805 5804 5803 5801 5800 5798 5796 5794 5792 5790 5787 5785 5783 5781 5779 5776 5773 5770 5768 5765 5762 5759 5756 5753 5750 5747 5745
5803 5803 5804 5804 5804 5805 5805 5804 5803 5803 5802 5801 5800 5799 5798 5797 5796 5795 5794 5792 5791 5789 5788 5786 5784 5783 5780 5778 5775 5773 5771 5769 5766 5764 5761 5758 5755 5752 5749 5747 5743 5740 5738 5735
5795 5795 5795 5795 5796 5796 5796 5795 5795 5794 5793 5792 5791 5790 5789 5787 5786 5785 5784 5782 5781 5780 5778 5776 5774 5773 5771 5768 5766 5763 5761 5759 5757 5754 5751 5749 5746 5743 5740 5738 5734 5731 5728 5726
5786 5786 5786 5786 5786 5786 5786 5785 5785 5784 5783 5782 5781 5780 5779 5777 5776 5775 5774 5772 5770 5769 5767 5766 5764 5762 5760 5758 5756 5754 5751 5749 5747 5744 5742 5739 5736 5733 5731 5728 5725 5722 5719 5717
5777 5777 5777 5777 5777 5777 5777 5776 5775 5774 5773 5772 5772 5771 5769 5768 5766 5765 5763 5761 5760 5758 5757 5755 5753 5752 5750 5748 5746 5743 5741 5739 5737 5734 5732 5729 5727 5724 5721 5718 5716 5713 5710 5708
5769 5768 5768 5767 5768 5768 5767 5767 5766 5765 5764 5764 5763 5761 5760 5758 5757 5755 5753 5751 5750 5748 5746 5745 5743 5742 5740 5738 5736 5734 5732 5730 5727 5725 5722 5720 5717 5714 5712 5709 5706 5704 5701 5699
5760 5759 5759 5759 5758 5758 5758 5758 5758 5757 5756 5755 5754 5753 5751 5749 5748 5746 5744 5742 5740 5739 5737 5735 5733 5731 5730 5728 5726 5724 5722 5720 5717 5715 5713 5710 5708 5706 5703 5700 5697 5695 5692 5689
5750 5750 5750 5749 5749 5749 5749 5749 5749 5748 5747 5746 5745 5744 5742 5741 5739 5737 5735 5733 5731 5729 5727 5725 5724 5722 5720 5718 5716 5714 5712 5710 5708 5706 5704 5702 5700 5697 5694 5691 5689 5686 5684 5681
5741 5742 5741 5741 5740 5740 5740 5740 5740 5739 5738 5737 5736 5735 5733 5732 5730 5728 5726 5724 5722 5720 5718 5716 5714 5713 5711 5709 5707 5705 5703 5701 5700 5698 5696 5694 5691 5689 5686 5683 5681 5678 5676 5673
5733 5733 5733 5732 5732 5731 5732 5732 5731 5730 5730 5728 5727 5726 5725 5724 5722 5720 5719 5717 5714 5712 5710 5708 5707 5705 5703 5701 5699 5697 5695 5693 5691 5689 5688 5686 5683 5681 5678 5676 5673 5670 5668 5665
5724 5724 5724 5724 5724 5723 5723 5723 5723 5722 5721 5720 5720 5719 5718 5716 5715 5713 5711 5709 5707 5705 5703 5701 5700 5698 5696 5694 5692 5690 5688 5685 5684 5682 5680 5678 5676 5673 5671 5668 5666 5663 5660 5658
5717 5717 5717 5717 5717 5716 5716 5715 5715 5714 5714 5713 5712 5711 5710 5709 5708 5706 5704 5703 5700 5699 5697 5695 5693 5692 5689 5687 5685 5683 5681 5679 5677 5675 5673 5671 5668 5666 5664 5661 5659 5656 5653 5651
5711 5710 5710 5710 5710 5710 5709 5709 5708 5707 5707 5706 5705 5704 5703 5702 5701 5700 5698 5696 5694 5692 5691 5689 5687 5685 5683 5681 5679 5677 5675 5672 5670 5668 5666 5663 5661 5659 5656 5654 5652 5649 5647 5644
5705 5704 5704 5704 5704 5703 5703 5702 5702 5701 5701 5699 5698 5697 5696 5695 5694 5693 5691 5689 5688 5686 5685 5683 5681 5679 5677 5675 5673 5670 5668 5666 5663 5661 5659 5656 5654 5652 5650 5647 5645 5642 5640 5637
5699 5699 5699 5698 5698 5698 5697 5697 5696 5696 5695 5694 5693 5691 5690 5689 5688 5686 5685 5683 5682 5680 5678 5677 5675 5673 5671 5668 5666 5664 5662 5659 5657 5655 5652 5650 5648 5645 5643 5640 5638 5635 5633 5631
5694 5694 5693 5693 5693 5692 5692 5691 5690 5690 5689 5688 5687 5686 5685 5683 5682 5680 5679 5677 5676 5674 5672 5671 5669 5667 5665 5662 5660 5658 5656 5653 5650 5648 5646 5643 5641 5639 5636 5634 5631 5629 5626 5624
5689 5689 5689 5688 5688 5687 5687 5686 5685 5685 5684 5683 5682 5681 5680 5678 5677 5675 5674 5672 5671 5669 5667 5665 5663 5661 5659 5657 5654 5652 5649 5647 5644 5642 5640 5637 5635 5633 5630 5628 5625 5623 5620 5618
Wind_Speed
25 24 24 24 22 22 23 23 24 24 24 23 24 24 24 24 24 23 22 22 21 21 21 21 22 23 22 23 24 24 25 25 25 26 26 26 26 27 26 26 26 26 26 26
26 26 26 25 24 24 24 24 26 27 26 24 26 27 27 27 26 26 26 25 24 24 24 25 25 25 25 24 25 26 26 26 27 28 28 28 28 28 28 28 27 27 27 28
27 28 27 26 25 26 25 25 25 27 27 26 27 28 28 28 28 27 28 28 28 27 26 26 26 26 26 26 27 28 28 28 28 29 29 29 29 29 29 29 29 28 28 29
28 28 28 26 26 27 27 27 28 27 27 27 27 28 29 30 29 29 29 29 29 29 29 28 27 27 28 29 29 28 28 29 29 29 30 30 30 30 30 31 31 30 30 29
29 29 29 28 27 28 29 29 29 28 29 29 29 30 30 30 30 31 31 31 30 29 29 28 27 28 29 29 29 29 30 30 30 30 31 31 32 31 31 31 31 31 31 31
29 28 29 28 28 29 30 31 31 31 31 32 32 32 32 32 33 32 32 32 31 30 29 29 29 29 29 29 29 29 29 30 30 31 32 32 33 33 33 32 31 31 31 31
28 29 29 28 28 29 31 31 31 31 32 32 32 31 32 33 33 32 31 31 30 30 30 29 30 30 30 30 30 30 30 30 31 32 32 32 32 33 32 32 31 31 31 31
28 29 29 28 29 29 30 31 32 32 31 32 32 32 33 33 34 33 33 30 30 30 31 30 30 30 30 31 31 30 30 31 31 31 32 32 33 33 32 32 32 31 31 31
28 29 30 30 30 30 31 32 33 33 33 32 32 33 33 33 32 32 32 30 31 31 31 31 32 31 31 31 32 32 31 32 32 32 32 32 32 32 32 32 32 32 32 31
29 30 31 31 31 31 31 32 33 33 33 33 34 34 34 34 33 33 33 33 32 32 32 32 33 33 33 33 33 32 32 32 32 32 32 32 32 32 32 31 31 31 31 31
31 32 32 32 32 31 30 31 31 31 32 32 33 34 34 35 35 34 32 33 33 33 33 33 34 34 34 35 34 33 32 32 32 33 32 32 32 32 32 31 31 31 31 31
33 33 33 33 32 31 30 30 30 31 32 32 33 34 35 35 36 35 34 34 34 33 34 34 34 34 35 35 34 33 33 32 33 33 33 33 33 33 33 32 32 32 31 31
33 33 33 33 33 32 32 31 31 31 30 30 32 34 35 36 35 35 35 35 35 34 34 35 35 35 35 34 34 33 33 33 33 34 34 34 34 33 32 32 32 32 32 31
32 33 33 34 33 33 32 32 32 31 30 31 31 32 33 35 36 35 35 35 35 35 34 34 34 34 34 34 33 33 33 34 34 34 34 34 34 33 32 31 31 31 31 31
32 32 33 33 33 33 32 32 31 31 31 31 31 31 32 33 34 35 35 34 33 33 33 33 33 33 33 33 33 33 34 34 34 34 33 33 33 33 32 31 30 31 31 30
31 31 32 32 32 31 31 31 31 31 31 30 30 30 31 32 33 33 33 33 32 31 31 32 32 32 33 34 34 33 33 33 33 33 32 32 32 32 31 31 31 31 30 30
31 31 31 31 31 31 31 30 30 30 30 29 30 31 31 31 31 31 31 31 32 32 31 31 32 32 32 33 33 33 33 32 31 30 30 29 29 30 30 30 29 29 29 29
30 30 30 30 30 30 30 30 29 30 30 30 30 30 31 30 30 30 30 31 31 31 31 31 31 31 31 31 32 32 31 31 31 31 30 29 28 29 29 29 29 29 28 28
29 28 28 28 28 29 29 29 29 28 29 29 29 29 29 29 28 28 28 28 29 29 28 29 29 29 29 30 29 29 29 29 29 29 28 28 28 29 29 29 29 29 29 28
27 27 27 27 27 27 27 27 27 26 27 27 27 26 26 25 25 25 26 26 27 27 27 28 28 27 27 27 27 27 27 28 28 27 27 27 27 27 27 27 27 27 27 26
25 26 26 25 24 24 24 24 24 25 25 24 24 24 24 24 24 24 24 24 25 25 25 25 24 24 25 25 25 25 26 25 26 26 26 26 26 25 25 25 25 25 25 25
23 24 24 23 21 21 21 21 22 22 23 23 23 23 23 24 24 24 24 23 23 23 23 23 23 23 23 23 24 24 24 24 24 25 25 25 25 25 25 24 24 24 24 24
20 19 19 19 19 19 19 20 20 21 21 21 22 22 22 22 23 23 23 22 22 21 21 22 22 22 23 23 23 23 23 23 24 24 24 24 24 24 24 23 24 24 24 23
17 16 16 17 17 18 18 19 19 20 20 20 20 20 21 21 20 21 21 21 21 20 21 21 21 22 22 22 23 22 22 22 22 22 22 22 22 22 22 23 24 24 24 23
16 16 16 17 17 17 17 18 19 19 19 19 18 18 19 19 19 19 19 19 19 19 20 20 21 21 21 21 21 21 21 21 20 20 20 21 21 22 23 23 23 23 23 22
14 15 16 16 16 16 17 17 17 18 17 17 17 17 17 18 18 18 18 17 18 19 19 19 19 19 19 19 20 21 21 21 20 20 21 21 21 21 21 21 21 22 21 21
14 14 15 15 15 15 15 15 16 16 16 15 15 16 16 16 16 17 17 17 17 18 18 18 18 19 19 19 20 20 20 20 20 20 20 20 20 20 20 20 21 21 21 21
Wind_Direction
253 252 249 246 246 246 250 255 263 267 269 270 272 278 281 285 289 290 289 289 292 296 297 296 296 296 297 297 296 298 298 297 297 296 294 294 296 296 296 296 296 295 295 294
252 252 251 249 247 248 251 255 260 264 266 267 271 276 279 283 288 290 290 290 293 294 294 294 294 293 294 293 294 295 295 295 294 292 292 293 294 293 293 294 294 294 293 293
253 251 253 250 247 249 252 256 263 265 268 268 270 272 277 282 287 288 289 288 289 289 290 290 292 292 291 291 292 292 292 292 291 291 291 291 291 292 292 292 291 292 291 291
255 253 253 253 252 251 254 257 261 264 268 271 271 273 275 279 282 284 285 287 289 288 289 290 291 291 291 291 292 292 291 290 290 290 290 289 289 289 290 289 289 289 289 291
257 256 256 255 256 257 258 259 260 262 266 270 271 273 275 278 281 284 286 287 286 285 287 288 288 291 291 290 291 291 290 289 290 292 291 289 287 288 287 288 287 288 289 291
258 258 258 258 257 257 260 261 263 264 267 269 272 274 276 277 280 283 284 286 287 284 286 286 289 291 292 291 291 291 290 290 291 292 292 292 289 287 287 287 288 289 291 292
261 261 261 260 260 259 260 263 264 266 269 271 272 275 277 278 279 281 283 284 285 285 285 287 288 290 291 291 291 290 289 289 290 292 292 293 292 292 291 290 290 291 291 291
261 262 262 262 261 261 263 265 267 270 271 272 274 275 276 278 279 280 282 283 285 285 285 286 288 288 289 290 290 290 290 290 290 291 292 293 293 293 293 292 291 291 291 292
260 263 265 264 264 264 265 267 270 270 271 273 274 275 275 278 279 281 281 282 283 284 285 286 287 286 288 289 290 290 290 291 291 292 293 294 294 294 294 294 293 293 292 292
262 264 265 266 266 266 267 270 271 272 272 272 272 273 274 277 278 279 279 279 281 283 284 286 286 287 288 289 290 289 290 290 291 292 293 293 294 293 292 293 293 292 292 292
264 266 266 267 268 269 270 270 271 272 273 275 275 275 275 277 279 280 280 280 281 282 283 283 284 286 287 288 289 289 288 289 290 291 292 292 293 293 293 293 293 293 292 291
264 267 267 267 268 270 272 273 273 273 273 274 276 275 277 280 280 281 283 283 283 283 282 282 283 283 285 287 287 287 288 288 289 290 290 291 291 292 292 292 293 293 293 292
263 266 268 269 270 271 273 274 274 274 276 276 276 276 277 278 279 281 284 285 284 283 282 282 282 282 284 285 286 287 287 288 289 290 290 290 291 291 291 290 291 292 292 292
263 265 268 269 272 273 274 274 275 275 276 276 276 277 276 276 279 281 282 282 283 282 282 282 282 282 282 283 285 287 288 289 289 289 289 289 291 292 291 290 290 291 291 292
264 266 268 269 270 271 273 274 274 275 275 276 278 279 278 277 279 280 281 281 282 282 282 282 281 282 283 283 285 286 287 288 288 288 288 289 290 291 291 291 291 292 292 291
264 266 269 270 270 271 273 274 274 275 276 276 278 280 279 279 279 280 281 281 282 281 281 281 281 282 282 283 285 285 286 288 288 289 288 287 288 291 293 292 291 292 293 292
263 266 269 270 271 272 272 273 275 276 277 278 278 280 281 281 281 282 283 284 284 284 283 282 282 282 284 285 284 284 285 287 288 290 291 292 292 294 295 295 294 293 293 292
265 267 269 269 271 271 271 273 276 277 277 278 279 279 280 281 282 283 284 285 286 286 284 283 284 284 285 286 286 285 286 287 289 291 292 293 294 294 296 297 295 295 295 294
266 267 269 270 271 272 274 274 276 277 277 277 278 278 279 281 283 284 285 286 288 287 286 285 286 286 287 288 288 288 288 289 290 291 292 292 294 296 295 296 297 298 297 295
268 268 268 269 271 273 274 276 276 276 278 277 277 277 279 281 283 285 287 289 290 290 288 286 287 288 288 290 291 291 291 291 291 292 292 293 295 297 298 297 297 297 297 296
267 267 268 270 274 274 275 275 274 274 275 277 277 278 279 280 282 284 286 288 290 291 289 287 288 289 291 293 293 293 293 294 293 293 293 294 295 297 299 299 298 298 298 297
268 268 269 271 272 273 274 274 274 275 274 276 277 278 280 281 282 284 287 289 290 291 290 290 290 292 292 293 295 295 295 296 296 294 294 294 295 297 299 299 299 300 299 298
271 269 270 271 272 273 273 273 274 276 277 276 277 279 281 282 283 285 287 290 291 291 292 291 292 294 295 294 295 295 296 297 296 295 296 297 298 298 298 297 299 300 300 299
272 270 269 272 273 272 272 273 274 276 278 279 279 278 280 281 283 286 288 289 290 292 293 293 293 295 296 297 297 297 297 297 297 297 298 299 299 298 298 297 298 298 298 298
272 273 273 273 273 271 272 273 274 277 279 280 282 283 284 285 286 286 288 289 289 292 293 292 293 295 297 299 299 299 298 299 300 301 301 299 299 299 299 299 299 298 297 298
276 277 274 273 274 273 272 273 275 278 282 284 284 286 288 289 289 290 290 289 291 294 294 294 295 297 299 301 301 301 300 299 299 300 301 301 302 303 303 303 303 301 300 301
272 274 274 275 277 277 277 278 280 282 284 286 287 289 291 292 291 292 291 293 295 296 297 298 299 300 301 303 303 303 303 302 301 302 303 303 303 305 304 305 305 303 301 301